Cloud_Cover
100 100 100 95 42 93 93 72 99 1 0 0 0 0 0 0 0 0 0 38 99 5 81 27 17 100 97 99 100 76 1 0 0
100 95 7 57 66 100 100 100 97 100 13 81 8 0 0 0 0 0 0 0 5 4 18 39 89 100 100 100 100 91 57 0 0
100 100 100 100 100 45 64 97 99 77 93 9 78 0 0 0 0 0 0 0 0 0 0 0 59 100 100 100 100 52 94 9 2
100 100 100 100 100 100 100 100 100 100 100 100 100 100 7 2 0 0 0 0 0 0 0 22 38 63 100 100 100 97 86 100 1
100 100 100 100 100 100 100 100 100 100 100 100 100 100 100 77 93 5 3 0 0 0 0 0 0 11 100 100 100 100 100 81 2
100 100 100 92 100 100 100 100 100 100 100 100 100 100 100 100 96 32 100 85 46 100 100 0 0 0 0 9 63 80 16 3 3
100 100 100 100 51 100 100 100 100 100 100 100 100 100 100 100 100 100 100 100 100 100 100 71 60 0 0 0 0 0 0 14 88
100 100 100 100 100 66 100 94 100 100 100 100 100 100 100 94 100 100 100 100 100 100 100 100 100 33 0 0 0 0 0 0 4
100 81 100 100 100 100 100 97 100 100 100 100 100 100 100 100 100 100 100 100 100 100 100 100 100 100 4 0 0 0 0 0 0
28 52 51 95 100 100 77 10 60 100 100 100 100 100 100 100 100 100 100 100 100 100 100 100 100 100 100 22 1 5 26 0 0
3 5 2 0 16 56 46 35 10 37 100 100 100 100 100 100 100 100 100 100 100 100 100 100 100 60 99 3 0 0 5 28 0
0 0 1 0 0 0 0 0 0 0 100 100 100 100 100 100 100 100 100 100 100 100 100 100 100 59 8 78 82 2 5 75 56
0 0 1 0 0 0 0 0 0 0 2 96 100 100 100 100 100 100 100 100 100 100 100 100 100 96 18 14 98 92 77 40 22
0 0 0 0 0 0 0 0 0 0 0 0 54 94 100 100 100 100 97 100 100 100 95 100 100 80 100 100 100 71 73 100 16
0 0 0 0 0 0 0 0 0 0 0 0 12 100 98 100 100 100 100 100 100 100 100 100 100 100 100 100 98 51 42 14 99
2 0 0 0 0 0 0 0 0 0 0 0 0 45 97 100 100 100 100 100 100 100 100 100 100 100 100 100 68 12 32 82 100
4 5 0 0 0 0 0 0 0 0 0 0 0 0 1 29 100 100 100 100 100 100 100 94 98 100 100 100 100 100 97 76 10
2 4 7 9 1 0 0 0 0 0 0 0 0 0 0 0 20 64 34 60 54 76 94 5 89 100 100 100 100 97 83 87 28
48 6 2 19 51 35 9 0 0 0 0 0 0 0 0 0 0 0 0 0 0 0 3 100 100 100 88 100 100 100 83 59 17
100 100 99 88 90 84 16 20 5 5 1 0 0 0 0 0 0 0 0 0 0 0 0 5 83 0 6 18 100 100 98 58 5